Time,TemperatureF,DewpointF,PressureIn,WindDirection,WindDirectionDegrees,WindSpeedMPH,WindSpeedGustMPH,Humidity,HourlyPrecipIn,Conditions,Clouds,dailyrainin,SoftwareType,DateUTC
2013-03-12 00:00:00,41.4,40.1,30.11,SE,128,0.0,0.0,95,0.00,,,0.00,Wunderground v.1.15,2013-03-12 04:00:00,
2013-03-12 00:05:00,41.4,40.1,30.11,SE,128,0.0,0.0,95,0.00,,,0.00,Wunderground v.1.15,2013-03-12 04:05:00,
2013-03-12 00:10:00,41.4,40.1,30.11,SE,128,0.0,0.0,95,0.00,,,0.00,Wunderground v.1.15,2013-03-12 04:10:00,
2013-03-12 00:15:00,41.4,40.1,30.11,SE,128,0.0,0.0,95,0.00,,,0.00,Wunderground v.1.15,2013-03-12 04:15:00,
2013-03-12 00:25:00,41.2,39.9,30.11,SE,128,0.0,0.0,95,0.00,,,0.00,Wunderground v.1.15,2013-03-12 04:25:00,
2013-03-12 00:35:00,41.0,39.7,30.10,SE,128,0.0,0.0,95,0.00,,,0.00,Wunderground v.1.15,2013-03-12 04:35:00,
2013-03-12 00:40:00,40.9,39.6,30.10,SE,128,0.0,0.0,95,0.00,,,0.00,Wunderground v.1.15,2013-03-12 04:40:00,
2013-03-12 00:45:00,40.7,39.4,30.09,SE,128,0.0,0.0,95,0.00,,,0.00,Wunderground v.1.15,2013-03-12 04:45:00,
2013-03-12 00:50:00,40.7,39.4,30.09,SE,128,0.0,0.0,95,0.00,,,0.00,Wunderground v.1.15,2013-03-12 04:50:00,
2013-03-12 00:55:00,40.6,39.3,30.09,SE,128,0.0,0.0,95,0.00,,,0.00,Wunderground v.1.15,2013-03-12 04:55:00,
2013-03-12 01:00:00,40.5,39.2,30.09,SE,128,0.0,0.0,95,0.00,,,0.00,Wunderground v.1.15,2013-03-12 05:00:00,
2013-03-12 01:05:00,40.4,39.1,30.09,SE,128,0.0,0.0,95,0.00,,,0.00,Wunderground v.1.15,2013-03-12 05:05:00,
2013-03-12 01:10:00,40.4,39.1,30.09,SE,128,0.0,0.0,95,0.00,,,0.00,Wunderground v.1.15,2013-03-12 05:10:00,
2013-03-12 01:15:00,40.2,38.9,30.09,SE,128,0.0,0.0,95,0.00,,,0.00,Wunderground v.1.15,2013-03-12 05:15:00,
2013-03-12 01:25:00,39.9,38.9,30.09,SE,128,0.0,0.0,96,0.00,,,0.00,Wunderground v.1.15,2013-03-12 05:25:00,
2013-03-12 01:30:00,39.8,38.5,30.09,SE,128,0.0,0.0,95,0.00,,,0.00,Wunderground v.1.15,2013-03-12 05:30:00,
2013-03-12 01:40:00,39.7,38.7,30.09,SE,128,0.0,0.0,96,0.00,,,0.00,Wunderground v.1.15,2013-03-12 05:40:00,
2013-03-12 01:45:00,39.6,38.6,30.09,SE,128,0.0,0.0,96,0.00,,,0.00,Wunderground v.1.15,2013-03-12 05:45:00,
2013-03-12 01:50:00,39.7,38.7,30.09,SE,128,0.0,0.0,96,0.00,,,0.00,Wunderground v.1.15,2013-03-12 05:50:00,
2013-03-12 01:55:00,39.7,38.7,30.09,SE,128,0.0,0.0,96,0.00,,,0.00,Wunderground v.1.15,2013-03-12 05:55:00,
2013-03-12 02:00:00,39.8,38.8,30.09,SE,128,0.0,0.0,96,0.00,,,0.00,Wunderground v.1.15,2013-03-12 06:00:00,
2013-03-12 02:05:00,39.8,38.8,30.08,SE,128,0.0,0.0,96,0.00,,,0.00,Wunderground v.1.15,2013-03-12 06:05:00,
2013-03-12 02:10:00,39.8,38.8,30.08,SE,128,0.0,0.0,96,0.00,,,0.00,Wunderground v.1.15,2013-03-12 06:10:00,
2013-03-12 02:15:00,39.7,38.7,30.08,SE,128,0.0,0.0,96,0.00,,,0.00,Wunderground v.1.15,2013-03-12 06:15:00,
2013-03-12 02:20:00,39.7,38.9,30.08,SE,128,0.0,0.0,97,0.00,,,0.00,Wunderground v.1.15,2013-03-12 06:20:00,
2013-03-12 02:25:00,39.7,38.7,30.07,SE,128,0.0,0.0,96,0.00,,,0.00,Wunderground v.1.15,2013-03-12 06:25:00,
2013-03-12 02:30:00,39.8,39.0,30.07,SE,128,0.0,0.0,97,0.00,,,0.00,Wunderground v.1.15,2013-03-12 06:30:00,
2013-03-12 02:35:00,40.0,39.2,30.07,SE,128,0.0,0.0,97,0.00,,,0.00,Wunderground v.1.15,2013-03-12 06:35:00,
2013-03-12 02:45:00,40.3,39.5,30.06,SE,128,0.0,0.0,97,0.00,,,0.00,Wunderground v.1.15,2013-03-12 06:45:00,
2013-03-12 02:55:00,40.6,39.8,30.06,SE,128,0.0,0.0,97,0.00,,,0.00,Wunderground v.1.15,2013-03-12 06:55:00,
2013-03-12 03:00:00,40.6,39.8,30.06,SE,128,0.0,0.0,97,0.00,,,0.00,Wunderground v.1.15,2013-03-12 07:00:00,
2013-03-12 03:05:00,40.6,39.8,30.06,SE,128,0.0,0.0,97,0.00,,,0.00,Wunderground v.1.15,2013-03-12 07:05:00,
2013-03-12 03:10:00,40.7,39.9,30.06,SE,128,0.0,0.0,97,0.00,,,0.00,Wunderground v.1.15,2013-03-12 07:10:00,
2013-03-12 03:15:00,40.9,40.1,30.06,SE,128,0.0,0.0,97,0.00,,,0.00,Wunderground v.1.15,2013-03-12 07:15:00,
2013-03-12 03:20:00,40.9,40.4,30.06,SE,128,0.0,0.0,98,0.00,,,0.00,Wunderground v.1.15,2013-03-12 07:20:00,
2013-03-12 03:25:00,40.9,40.1,30.05,SE,128,0.0,0.0,97,0.00,,,0.00,Wunderground v.1.15,2013-03-12 07:25:00,
2013-03-12 03:30:00,40.9,40.4,30.05,SE,128,0.0,0.0,98,0.00,,,0.00,Wunderground v.1.15,2013-03-12 07:30:00,
2013-03-12 03:35:00,41.0,40.5,30.04,SE,128,0.0,0.0,98,0.00,,,0.00,Wunderground v.1.15,2013-03-12 07:35:00,
2013-03-12 03:40:00,41.1,40.6,30.04,SE,128,0.0,0.0,98,0.00,,,0.00,Wunderground v.1.15,2013-03-12 07:40:00,
2013-03-12 03:45:00,41.3,40.8,30.03,SE,128,0.0,0.0,98,0.00,,,0.00,Wunderground v.1.15,2013-03-12 07:45:00,
2013-03-12 03:55:00,41.6,41.1,30.03,SE,128,0.0,0.0,98,0.00,,,0.00,Wunderground v.1.15,2013-03-12 07:55:00,
2013-03-12 04:00:00,41.6,41.1,30.03,SE,128,0.0,0.0,98,0.00,,,0.00,Wunderground v.1.15,2013-03-12 08:00:00,
2013-03-12 04:10:00,41.8,41.3,30.03,SE,128,0.0,0.0,98,0.00,,,0.00,Wunderground v.1.15,2013-03-12 08:10:00,
2013-03-12 04:15:00,41.8,41.3,30.03,SE,128,0.0,0.0,98,0.00,,,0.00,Wunderground v.1.15,2013-03-12 08:15:00,
2013-03-12 04:25:00,41.8,41.3,30.03,SE,128,0.0,0.0,98,0.00,,,0.00,Wunderground v.1.15,2013-03-12 08:25:00,
2013-03-12 04:30:00,41.7,41.2,30.03,SE,128,0.0,0.0,98,0.00,,,0.00,Wunderground v.1.15,2013-03-12 08:30:00,
2013-03-12 04:35:00,41.7,41.2,30.03,SE,128,0.0,0.0,98,0.00,,,0.00,Wunderground v.1.15,2013-03-12 08:35:00,
2013-03-12 04:40:00,41.6,41.1,30.04,SE,128,0.0,0.0,98,0.00,,,0.00,Wunderground v.1.15,2013-03-12 08:40:00,
2013-03-12 04:45:00,41.5,41.0,30.03,SE,128,0.0,1.0,98,0.00,,,0.00,Wunderground v.1.15,2013-03-12 08:45:00,
2013-03-12 04:55:00,41.6,41.1,30.03,SE,128,0.0,0.0,98,0.00,,,0.00,Wunderground v.1.15,2013-03-12 08:55:00,
2013-03-12 05:05:00,41.5,41.0,30.03,SE,128,0.0,0.0,98,0.00,,,0.00,Wunderground v.1.15,2013-03-12 09:05:00,
2013-03-12 05:10:00,41.5,41.0,30.03,SE,128,0.0,0.0,98,0.00,,,0.00,Wunderground v.1.15,2013-03-12 09:10:00,
2013-03-12 05:15:00,41.5,41.0,30.03,SE,128,0.0,0.0,98,0.00,,,0.00,Wunderground v.1.15,2013-03-12 09:15:00,
2013-03-12 05:20:00,41.5,41.0,30.02,SE,128,0.0,0.0,98,0.00,,,0.00,Wunderground v.1.15,2013-03-12 09:20:00,
2013-03-12 05:25:00,41.6,41.1,30.03,SE,128,0.0,0.0,98,0.00,,,0.00,Wunderground v.1.15,2013-03-12 09:25:00,
2013-03-12 05:35:00,41.6,41.1,30.03,SE,128,0.0,0.0,98,0.00,,,0.00,Wunderground v.1.15,2013-03-12 09:35:00,
2013-03-12 05:40:00,41.6,41.1,30.03,SE,128,0.0,0.0,98,0.00,,,0.00,Wunderground v.1.15,2013-03-12 09:40:00,
2013-03-12 05:45:00,41.5,41.0,30.03,SE,128,0.0,0.0,98,0.00,,,0.00,Wunderground v.1.15,2013-03-12 09:45:00,
2013-03-12 05:50:00,41.7,41.2,30.03,SE,128,0.0,0.0,98,0.00,,,0.00,Wunderground v.1.15,2013-03-12 09:50:00,
2013-03-12 05:55:00,41.8,41.3,30.03,SE,128,0.0,0.0,98,0.00,,,0.00,Wunderground v.1.15,2013-03-12 09:55:00,
2013-03-12 06:00:00,41.9,41.4,30.02,SE,128,0.0,0.0,98,0.00,,,0.00,Wunderground v.1.15,2013-03-12 10:00:00,
2013-03-12 06:05:00,42.0,41.5,30.02,SE,128,0.0,0.0,98,0.00,,,0.00,Wunderground v.1.15,2013-03-12 10:05:00,
2013-03-12 06:15:00,42.2,41.7,30.02,SE,128,0.0,0.0,98,0.00,,,0.00,Wunderground v.1.15,2013-03-12 10:15:00,
2013-03-12 06:20:00,42.2,41.7,30.02,SE,128,0.0,0.0,98,0.00,,,0.00,Wunderground v.1.15,2013-03-12 10:20:00,
2013-03-12 06:25:00,42.2,41.7,30.02,SE,128,0.0,0.0,98,0.00,,,0.00,Wunderground v.1.15,2013-03-12 10:25:00,
2013-03-12 06:30:00,42.3,41.8,30.02,SE,128,0.0,0.0,98,0.00,,,0.00,Wunderground v.1.15,2013-03-12 10:30:00,
2013-03-12 06:40:00,42.4,41.9,30.02,SE,128,0.0,0.0,98,0.00,,,0.00,Wunderground v.1.15,2013-03-12 10:40:00,
2013-03-12 06:45:00,42.4,41.9,30.02,SE,128,0.0,0.0,98,0.00,,,0.00,Wunderground v.1.15,2013-03-12 10:45:00,
2013-03-12 06:50:00,42.5,42.0,30.01,SE,128,0.0,0.0,98,0.00,,,0.00,Wunderground v.1.15,2013-03-12 10:50:00,
2013-03-12 07:00:00,42.8,42.5,30.01,SE,128,0.0,0.0,99,0.00,,,0.00,Wunderground v.1.15,2013-03-12 11:00:00,
2013-03-12 07:05:00,42.9,42.6,30.01,SE,128,0.0,0.0,99,0.00,,,0.00,Wunderground v.1.15,2013-03-12 11:05:00,
2013-03-12 07:10:00,42.9,42.6,30.01,SE,128,0.0,0.0,99,0.00,,,0.00,Wunderground v.1.15,2013-03-12 11:10:00,
2013-03-12 07:15:00,42.9,42.6,30.01,SE,128,0.0,0.0,99,0.00,,,0.00,Wunderground v.1.15,2013-03-12 11:15:00,
2013-03-12 07:25:00,43.0,42.7,30.00,SE,128,0.0,0.0,99,0.00,,,0.00,Wunderground v.1.15,2013-03-12 11:25:00,
2013-03-12 07:30:00,43.1,42.8,30.00,SE,128,0.0,0.0,99,0.00,,,0.00,Wunderground v.1.15,2013-03-12 11:30:00,
2013-03-12 07:35:00,43.1,42.8,30.01,SE,128,0.0,0.0,99,0.00,,,0.00,Wunderground v.1.15,2013-03-12 11:35:00,
2013-03-12 07:40:00,43.1,42.8,30.01,SE,128,0.0,0.0,99,0.00,,,0.00,Wunderground v.1.15,2013-03-12 11:40:00,
2013-03-12 07:45:00,43.1,42.8,30.01,SE,128,0.0,0.0,99,0.00,,,0.00,Wunderground v.1.15,2013-03-12 11:45:00,
2013-03-12 07:50:00,43.2,42.9,30.01,SE,128,0.0,0.0,99,0.00,,,0.00,Wunderground v.1.15,2013-03-12 11:50:00,
2013-03-12 07:55:00,43.3,43.0,30.01,SE,128,0.0,0.0,99,0.00,,,0.01,Wunderground v.1.15,2013-03-12 11:55:00,
2013-03-12 08:00:00,43.3,43.0,30.00,SE,128,0.0,0.0,99,0.00,,,0.01,Wunderground v.1.15,2013-03-12 12:00:00,
2013-03-12 08:10:00,43.3,43.0,30.01,SE,128,0.0,0.0,99,0.00,,,0.01,Wunderground v.1.15,2013-03-12 12:10:00,
2013-03-12 08:20:00,43.4,43.1,30.01,SE,128,0.0,0.0,99,0.00,,,0.01,Wunderground v.1.15,2013-03-12 12:20:00,
2013-03-12 08:25:00,43.5,43.2,30.00,SE,128,0.0,0.0,99,0.00,,,0.01,Wunderground v.1.15,2013-03-12 12:25:00,
2013-03-12 08:35:00,43.6,43.3,30.00,SE,128,0.0,0.0,99,0.00,,,0.01,Wunderground v.1.15,2013-03-12 12:35:00,
2013-03-12 08:40:00,43.7,43.4,30.00,SE,128,0.0,0.0,99,0.00,,,0.01,Wunderground v.1.15,2013-03-12 12:40:00,
2013-03-12 08:45:00,43.9,43.6,30.00,SE,128,0.0,0.0,99,0.00,,,0.01,Wunderground v.1.15,2013-03-12 12:45:00,
2013-03-12 08:50:00,44.0,43.7,30.00,SE,128,0.0,0.0,99,0.00,,,0.01,Wunderground v.1.15,2013-03-12 12:50:00,
2013-03-12 08:55:00,44.3,44.0,29.99,SE,128,0.0,0.0,99,0.00,,,0.01,Wunderground v.1.15,2013-03-12 12:55:00,
2013-03-12 09:00:00,44.4,44.1,29.99,SE,128,0.0,0.0,99,0.00,,,0.01,Wunderground v.1.15,2013-03-12 13:00:00,
2013-03-12 09:05:00,44.6,44.3,30.00,SE,128,0.0,0.0,99,0.00,,,0.01,Wunderground v.1.15,2013-03-12 13:05:00,
2013-03-12 09:10:00,44.7,44.4,30.00,SE,128,0.0,0.0,99,0.00,,,0.01,Wunderground v.1.15,2013-03-12 13:10:00,
2013-03-12 09:20:00,45.0,44.7,30.00,SE,128,0.0,0.0,99,0.00,,,0.01,Wunderground v.1.15,2013-03-12 13:20:00,
2013-03-12 09:25:00,45.1,44.8,30.00,SE,128,0.0,0.0,99,0.00,,,0.01,Wunderground v.1.15,2013-03-12 13:25:00,
2013-03-12 09:30:00,45.3,45.0,30.00,SE,128,0.0,0.0,99,0.00,,,0.01,Wunderground v.1.15,2013-03-12 13:30:00,
2013-03-12 09:35:00,45.6,45.3,30.00,SE,129,0.0,0.0,99,0.00,,,0.01,Wunderground v.1.15,2013-03-12 13:35:00,
2013-03-12 09:45:00,46.1,45.8,30.00,SE,129,0.0,1.0,99,0.00,,,0.01,Wunderground v.1.15,2013-03-12 13:45:00,
2013-03-12 09:50:00,46.3,46.0,30.00,SE,129,0.0,0.0,99,0.00,,,0.01,Wunderground v.1.15,2013-03-12 13:50:00,
2013-03-12 09:55:00,46.5,46.2,30.00,SE,128,0.0,0.0,99,0.00,,,0.01,Wunderground v.1.15,2013-03-12 13:55:00,
2013-03-12 10:00:00,46.7,46.4,30.00,SE,128,0.0,2.0,99,0.00,,,0.01,Wunderground v.1.15,2013-03-12 14:00:00,
2013-03-12 10:05:00,46.8,46.5,29.99,SE,140,1.0,2.0,99,0.00,,,0.01,Wunderground v.1.15,2013-03-12 14:05:00,
2013-03-12 10:15:00,47.2,46.9,30.00,SE,140,1.0,3.0,99,0.00,,,0.01,Wunderground v.1.15,2013-03-12 14:15:00,
2013-03-12 10:20:00,47.5,47.2,29.99,SE,138,1.0,1.0,99,0.00,,,0.01,Wunderground v.1.15,2013-03-12 14:20:00,
2013-03-12 10:25:00,47.7,47.2,29.99,SE,138,1.0,1.0,98,0.00,,,0.01,Wunderground v.1.15,2013-03-12 14:25:00,
2013-03-12 10:30:00,47.8,47.3,29.98,SE,138,0.0,0.0,98,0.00,,,0.01,Wunderground v.1.15,2013-03-12 14:30:00,
2013-03-12 10:35:00,47.9,47.4,29.98,SSE,151,0.0,0.0,98,0.00,,,0.01,Wunderground v.1.15,2013-03-12 14:35:00,
2013-03-12 10:45:00,48.3,47.5,29.98,SE,143,1.0,4.0,97,0.00,,,0.01,Wunderground v.1.15,2013-03-12 14:45:00,
2013-03-12 10:55:00,48.6,47.8,29.97,SE,143,1.0,1.0,97,0.00,,,0.01,Wunderground v.1.15,2013-03-12 14:55:00,
2013-03-12 11:00:00,48.8,48.0,29.97,SE,143,0.0,0.0,97,0.00,,,0.01,Wunderground v.1.15,2013-03-12 15:00:00,
2013-03-12 11:05:00,48.9,47.8,29.97,SE,143,1.0,2.0,96,0.00,,,0.01,Wunderground v.1.15,2013-03-12 15:05:00,
2013-03-12 11:10:00,49.0,47.9,29.97,SE,136,1.0,1.0,96,0.00,,,0.01,Wunderground v.1.15,2013-03-12 15:10:00,
2013-03-12 11:15:00,49.2,48.1,29.96,SE,136,0.0,1.0,96,0.00,,,0.01,Wunderground v.1.15,2013-03-12 15:15:00,
2013-03-12 11:20:00,49.4,48.3,29.96,SE,136,0.0,0.0,96,0.00,,,0.01,Wunderground v.1.15,2013-03-12 15:20:00,
2013-03-12 11:30:00,49.8,48.4,29.96,SE,136,0.0,0.0,95,0.00,,,0.01,Wunderground v.1.15,2013-03-12 15:30:00,
2013-03-12 11:35:00,49.9,48.5,29.96,SE,138,1.0,1.0,95,0.00,,,0.01,Wunderground v.1.15,2013-03-12 15:35:00,
2013-03-12 11:40:00,50.0,48.6,29.96,SSW,211,1.0,1.0,95,0.00,,,0.01,Wunderground v.1.15,2013-03-12 15:40:00,
2013-03-12 11:45:00,50.1,48.7,29.96,SE,127,1.0,1.0,95,0.00,,,0.01,Wunderground v.1.15,2013-03-12 15:45:00,
2013-03-12 11:50:00,50.2,48.5,29.95,ESE,119,1.0,1.0,94,0.00,,,0.01,Wunderground v.1.15,2013-03-12 15:50:00,
2013-03-12 11:55:00,50.3,48.6,29.95,ESE,117,1.0,4.0,94,0.00,,,0.01,Wunderground v.1.15,2013-03-12 15:55:00,
2013-03-12 12:00:00,50.4,48.7,29.95,ESE,118,1.0,1.0,94,0.00,,,0.01,Wunderground v.1.15,2013-03-12 16:00:00,
2013-03-12 12:05:00,50.6,48.9,29.95,ESE,114,1.0,1.0,94,0.00,,,0.01,Wunderground v.1.15,2013-03-12 16:05:00,
2013-03-12 12:10:00,50.8,49.1,29.94,ESE,115,1.0,1.0,94,0.00,,,0.01,Wunderground v.1.15,2013-03-12 16:10:00,
2013-03-12 12:15:00,50.9,49.2,29.94,ESE,118,1.0,3.0,94,0.00,,,0.01,Wunderground v.1.15,2013-03-12 16:15:00,
2013-03-12 12:20:00,51.0,49.0,29.94,South,180,1.0,1.0,93,0.00,,,0.01,Wunderground v.1.15,2013-03-12 16:20:00,
2013-03-12 12:30:00,51.2,49.2,29.94,ESE,106,1.0,1.0,93,0.00,,,0.01,Wunderground v.1.15,2013-03-12 16:30:00,
2013-03-12 12:35:00,51.4,49.4,29.93,SE,132,1.0,1.0,93,0.00,,,0.01,Wunderground v.1.15,2013-03-12 16:35:00,
2013-03-12 12:40:00,51.4,49.2,29.93,ESE,117,0.0,2.0,92,0.00,,,0.01,Wunderground v.1.15,2013-03-12 16:40:00,
2013-03-12 12:45:00,51.4,49.2,29.93,SSE,153,1.0,2.0,92,0.00,,,0.01,Wunderground v.1.15,2013-03-12 16:45:00,
2013-03-12 12:50:00,51.4,49.2,29.93,SSE,152,1.0,1.0,92,0.00,,,0.01,Wunderground v.1.15,2013-03-12 16:50:00,
2013-03-12 12:55:00,51.4,49.2,29.93,SSE,150,0.0,1.0,92,0.00,,,0.01,Wunderground v.1.15,2013-03-12 16:55:00,
2013-03-12 13:00:00,51.5,49.3,29.93,ESE,109,1.0,1.0,92,0.00,,,0.01,Wunderground v.1.15,2013-03-12 17:00:00,
2013-03-12 13:05:00,51.5,49.3,29.92,SSW,199,1.0,1.0,92,0.00,,,0.01,Wunderground v.1.15,2013-03-12 17:05:00,
2013-03-12 13:15:00,51.6,49.4,29.92,SSW,192,0.0,3.0,92,0.00,,,0.01,Wunderground v.1.15,2013-03-12 17:15:00,
2013-03-12 13:20:00,51.5,49.3,29.91,SSW,192,0.0,0.0,92,0.00,,,0.01,Wunderground v.1.15,2013-03-12 17:20:00,
2013-03-12 13:25:00,51.5,49.0,29.91,South,186,0.0,5.0,91,0.00,,,0.01,Wunderground v.1.15,2013-03-12 17:25:00,
2013-03-12 13:35:00,51.2,48.7,29.91,SSE,167,1.0,2.0,91,0.00,,,0.01,Wunderground v.1.15,2013-03-12 17:35:00,
2013-03-12 13:40:00,51.0,48.5,29.91,SSE,167,1.0,1.0,91,0.00,,,0.01,Wunderground v.1.15,2013-03-12 17:40:00,
2013-03-12 13:45:00,50.8,48.6,29.91,SSE,167,0.0,1.0,92,0.00,,,0.01,Wunderground v.1.15,2013-03-12 17:45:00,
2013-03-12 13:50:00,50.6,48.4,29.90,SSE,167,0.0,0.0,92,0.00,,,0.01,Wunderground v.1.15,2013-03-12 17:50:00,
2013-03-12 13:55:00,50.5,48.3,29.90,SSE,165,0.0,1.0,92,0.00,,,0.01,Wunderground v.1.15,2013-03-12 17:55:00,
2013-03-12 14:00:00,50.3,48.1,29.90,SSE,165,0.0,0.0,92,0.00,,,0.01,Wunderground v.1.15,2013-03-12 18:00:00,
2013-03-12 14:05:00,50.2,48.0,29.90,SSE,165,0.0,0.0,92,0.00,,,0.01,Wunderground v.1.15,2013-03-12 18:05:00,
2013-03-12 14:10:00,50.2,48.0,29.90,SSE,157,0.0,1.0,92,0.00,,,0.01,Wunderground v.1.15,2013-03-12 18:10:00,
2013-03-12 14:20:00,50.0,48.1,29.89,SE,146,1.0,1.0,93,0.00,,,0.01,Wunderground v.1.15,2013-03-12 18:20:00,
2013-03-12 14:30:00,49.9,48.0,29.89,SE,146,0.0,1.0,93,0.00,,,0.01,Wunderground v.1.15,2013-03-12 18:30:00,
2013-03-12 14:35:00,49.8,47.9,29.88,SE,142,0.0,1.0,93,0.00,,,0.01,Wunderground v.1.15,2013-03-12 18:35:00,
2013-03-12 14:40:00,49.8,47.9,29.88,SE,135,1.0,1.0,93,0.00,,,0.01,Wunderground v.1.15,2013-03-12 18:40:00,
2013-03-12 14:45:00,49.8,47.9,29.88,SE,132,1.0,1.0,93,0.00,,,0.01,Wunderground v.1.15,2013-03-12 18:45:00,
2013-03-12 14:50:00,49.8,47.9,29.88,SE,132,0.0,1.0,93,0.00,,,0.01,Wunderground v.1.15,2013-03-12 18:50:00,
2013-03-12 15:00:00,49.7,47.8,29.87,SE,132,0.0,2.0,93,0.00,,,0.01,Wunderground v.1.15,2013-03-12 19:00:00,
2013-03-12 15:05:00,49.7,47.8,29.87,SE,132,0.0,2.0,93,0.00,,,0.01,Wunderground v.1.15,2013-03-12 19:05:00,
2013-03-12 15:10:00,49.6,47.7,29.86,SE,131,0.0,0.0,93,0.00,,,0.01,Wunderground v.1.15,2013-03-12 19:10:00,
2013-03-12 15:15:00,49.6,47.7,29.86,SE,131,0.0,0.0,93,0.00,,,0.01,Wunderground v.1.15,2013-03-12 19:15:00,
2013-03-12 15:25:00,49.6,47.7,29.86,ESE,115,1.0,2.0,93,0.00,,,0.01,Wunderground v.1.15,2013-03-12 19:25:00,
2013-03-12 15:30:00,49.6,47.7,29.86,ESE,106,1.0,2.0,93,0.00,,,0.01,Wunderground v.1.15,2013-03-12 19:30:00,
2013-03-12 15:40:00,49.7,47.8,29.85,SE,124,1.0,3.0,93,0.00,,,0.01,Wunderground v.1.15,2013-03-12 19:40:00,
2013-03-12 15:45:00,49.8,47.9,29.85,ESE,115,1.0,3.0,93,0.00,,,0.01,Wunderground v.1.15,2013-03-12 19:45:00,
2013-03-12 15:50:00,49.9,48.0,29.85,SE,136,1.0,3.0,93,0.00,,,0.01,Wunderground v.1.15,2013-03-12 19:50:00,
2013-03-12 16:00:00,49.9,48.0,29.84,East,80,2.0,2.0,93,0.00,,,0.01,Wunderground v.1.15,2013-03-12 20:00:00,
2013-03-12 16:05:00,49.8,47.9,29.84,SSE,165,1.0,2.0,93,0.00,,,0.01,Wunderground v.1.15,2013-03-12 20:05:00,
2013-03-12 16:15:00,49.7,47.8,29.83,ESE,123,1.0,2.0,93,0.00,,,0.01,Wunderground v.1.15,2013-03-12 20:15:00,
2013-03-12 16:20:00,49.7,47.8,29.84,ESE,105,1.0,4.0,93,0.00,,,0.01,Wunderground v.1.15,2013-03-12 20:20:00,
2013-03-12 16:25:00,49.7,47.8,29.83,SSE,155,1.0,8.0,93,0.00,,,0.01,Wunderground v.1.15,2013-03-12 20:25:00,
2013-03-12 16:30:00,49.7,47.8,29.83,SE,132,1.0,4.0,93,0.00,,,0.01,Wunderground v.1.15,2013-03-12 20:30:00,
2013-03-12 16:35:00,49.7,47.8,29.83,East,83,1.0,4.0,93,0.00,,,0.01,Wunderground v.1.15,2013-03-12 20:35:00,
2013-03-12 16:45:00,49.6,47.7,29.83,SE,124,1.0,1.0,93,0.00,,,0.01,Wunderground v.1.15,2013-03-12 20:45:00,
2013-03-12 16:55:00,49.6,47.9,29.82,SSE,157,1.0,1.0,94,0.00,,,0.01,Wunderground v.1.15,2013-03-12 20:55:00,
2013-03-12 17:00:00,49.7,48.0,29.82,SE,137,1.0,1.0,94,0.00,,,0.01,Wunderground v.1.15,2013-03-12 21:00:00,
2013-03-12 17:05:00,49.6,47.9,29.82,SE,141,1.0,1.0,94,0.00,,,0.01,Wunderground v.1.15,2013-03-12 21:05:00,
2013-03-12 17:10:00,49.6,47.9,29.82,SE,137,1.0,1.0,94,0.00,,,0.01,Wunderground v.1.15,2013-03-12 21:10:00,
2013-03-12 17:15:00,49.5,48.1,29.81,ESE,111,0.0,1.0,95,0.00,,,0.01,Wunderground v.1.15,2013-03-12 21:15:00,
2013-03-12 17:20:00,49.5,48.1,29.81,SSE,153,1.0,1.0,95,0.00,,,0.01,Wunderground v.1.15,2013-03-12 21:20:00,
2013-03-12 17:25:00,49.5,48.1,29.81,SSE,154,1.0,1.0,95,0.00,,,0.01,Wunderground v.1.15,2013-03-12 21:25:00,
2013-03-12 17:30:00,49.4,48.3,29.80,SSE,153,1.0,1.0,96,0.00,,,0.02,Wunderground v.1.15,2013-03-12 21:30:00,
2013-03-12 17:40:00,49.2,48.1,29.80,ENE,78,1.0,1.0,96,0.00,,,0.02,Wunderground v.1.15,2013-03-12 21:40:00,
2013-03-12 17:45:00,49.1,48.0,29.79,East,87,1.0,1.0,96,0.04,,,0.03,Wunderground v.1.15,2013-03-12 21:45:00,
2013-03-12 17:50:00,49.1,48.0,29.79,SE,138,1.0,1.0,96,0.04,,,0.03,Wunderground v.1.15,2013-03-12 21:50:00,
2013-03-12 18:00:00,48.9,48.1,29.78,SSW,192,1.0,1.0,97,0.00,,,0.03,Wunderground v.1.15,2013-03-12 22:00:00,
2013-03-12 18:05:00,48.8,48.0,29.78,South,169,1.0,1.0,97,0.00,,,0.03,Wunderground v.1.15,2013-03-12 22:05:00,
2013-03-12 18:10:00,48.8,48.0,29.78,East,101,1.0,1.0,97,0.00,,,0.03,Wunderground v.1.15,2013-03-12 22:10:00,
2013-03-12 18:15:00,48.8,48.0,29.78,SE,138,1.0,5.0,97,0.00,,,0.03,Wunderground v.1.15,2013-03-12 22:15:00,
2013-03-12 18:25:00,49.0,48.2,29.77,SE,136,1.0,1.0,97,0.00,,,0.03,Wunderground v.1.15,2013-03-12 22:25:00,
2013-03-12 18:30:00,49.0,48.2,29.77,SE,132,1.0,2.0,97,0.00,,,0.03,Wunderground v.1.15,2013-03-12 22:30:00,
2013-03-12 18:35:00,49.1,48.6,29.76,SE,133,1.0,2.0,98,0.00,,,0.03,Wunderground v.1.15,2013-03-12 22:35:00,
2013-03-12 18:40:00,49.2,48.7,29.76,SE,140,2.0,2.0,98,0.00,,,0.04,Wunderground v.1.15,2013-03-12 22:40:00,
2013-03-12 18:45:00,49.2,48.7,29.76,SE,140,2.0,2.0,98,0.00,,,0.04,Wunderground v.1.15,2013-03-12 22:45:00,
2013-03-12 18:50:00,49.2,48.7,29.75,ENE,68,1.0,2.0,98,0.00,,,0.04,Wunderground v.1.15,2013-03-12 22:50:00,
2013-03-12 18:55:00,49.4,48.9,29.75,ESE,105,2.0,2.0,98,0.05,,,0.05,Wunderground v.1.15,2013-03-12 22:55:00,
2013-03-12 19:00:00,49.4,48.9,29.75,SSE,155,2.0,2.0,98,0.05,,,0.05,Wunderground v.1.15,2013-03-12 23:00:00,
2013-03-12 19:05:00,49.5,49.0,29.75,ESE,106,2.0,2.0,98,0.05,,,0.06,Wunderground v.1.15,2013-03-12 23:05:00,
2013-03-12 19:10:00,49.5,49.0,29.75,East,91,1.0,1.0,98,0.05,,,0.06,Wunderground v.1.15,2013-03-12 23:10:00,
2013-03-12 19:15:00,49.4,48.9,29.75,SE,129,1.0,3.0,98,0.08,,,0.07,Wunderground v.1.15,2013-03-12 23:15:00,
2013-03-12 19:25:00,49.4,48.9,29.74,ESE,111,1.0,1.0,98,0.11,,,0.09,Wunderground v.1.15,2013-03-12 23:25:00,
2013-03-12 19:30:00,49.4,48.9,29.74,SE,142,1.0,1.0,98,0.10,,,0.10,Wunderground v.1.15,2013-03-12 23:30:00,
2013-03-12 19:35:00,49.5,49.0,29.74,SSE,155,2.0,2.0,98,0.14,,,0.11,Wunderground v.1.15,2013-03-12 23:35:00,
2013-03-12 19:40:00,49.5,49.2,29.74,South,169,1.0,1.0,99,0.21,,,0.13,Wunderground v.1.15,2013-03-12 23:40:00,
2013-03-12 19:45:00,49.4,49.1,29.74,SE,135,1.0,1.0,99,0.10,,,0.13,Wunderground v.1.15,2013-03-12 23:45:00,
2013-03-12 19:50:00,49.5,49.2,29.74,SSE,150,1.0,2.0,99,0.16,,,0.15,Wunderground v.1.15,2013-03-12 23:50:00,
2013-03-12 19:55:00,49.6,49.3,29.73,SE,136,2.0,2.0,99,0.12,,,0.15,Wunderground v.1.15,2013-03-12 23:55:00,
2013-03-12 20:00:00,49.6,49.3,29.73,South,179,2.0,2.0,99,0.08,,,0.16,Wunderground v.1.15,2013-03-13 00:00:00,
2013-03-12 20:05:00,49.7,49.4,29.73,WNW,298,2.0,3.0,99,0.08,,,0.16,Wunderground v.1.15,2013-03-13 00:05:00,
2013-03-12 20:15:00,49.5,49.2,29.72,ESE,105,1.0,2.0,99,0.08,,,0.18,Wunderground v.1.15,2013-03-13 00:15:00,
2013-03-12 20:20:00,49.5,49.2,29.71,ENE,74,1.0,8.0,99,0.21,,,0.20,Wunderground v.1.15,2013-03-13 00:20:00,
2013-03-12 20:25:00,49.4,49.1,29.70,SE,143,1.0,8.0,99,0.28,,,0.22,Wunderground v.1.15,2013-03-13 00:25:00,
2013-03-12 20:35:00,49.4,49.1,29.70,SE,134,1.0,2.0,99,0.09,,,0.24,Wunderground v.1.15,2013-03-13 00:35:00,
2013-03-12 20:40:00,49.5,49.2,29.70,SE,141,2.0,2.0,99,0.09,,,0.24,Wunderground v.1.15,2013-03-13 00:40:00,
2013-03-12 20:45:00,49.5,49.2,29.69,ESE,112,2.0,2.0,99,0.05,,,0.24,Wunderground v.1.15,2013-03-13 00:45:00,
2013-03-12 20:50:00,49.6,49.3,29.69,ESE,122,1.0,1.0,99,0.04,,,0.25,Wunderground v.1.15,2013-03-13 00:50:00,
2013-03-12 20:55:00,49.7,49.4,29.68,SE,145,1.0,4.0,99,0.10,,,0.26,Wunderground v.1.15,2013-03-13 00:55:00,
2013-03-12 21:00:00,49.7,49.4,29.69,ESE,109,1.0,1.0,99,0.08,,,0.26,Wunderground v.1.15,2013-03-13 01:00:00,
2013-03-12 21:05:00,49.8,49.5,29.69,ESE,108,1.0,3.0,99,0.07,,,0.27,Wunderground v.1.15,2013-03-13 01:05:00,
2013-03-12 21:10:00,49.9,49.6,29.69,SSE,157,1.0,1.0,99,0.07,,,0.27,Wunderground v.1.15,2013-03-13 01:10:00,
2013-03-12 21:20:00,50.2,49.9,29.69,SSE,164,1.0,1.0,99,0.05,,,0.28,Wunderground v.1.15,2013-03-13 01:20:00,
2013-03-12 21:30:00,50.5,50.5,29.69,South,184,1.0,1.0,100,0.07,,,0.29,Wunderground v.1.15,2013-03-13 01:30:00,
2013-03-12 21:35:00,50.5,50.5,29.69,East,91,1.0,1.0,100,0.04,,,0.29,Wunderground v.1.15,2013-03-13 01:35:00,
2013-03-12 21:40:00,50.5,50.5,29.69,South,180,1.0,1.0,100,0.04,,,0.30,Wunderground v.1.15,2013-03-13 01:40:00,
2013-03-12 21:45:00,50.5,50.5,29.69,ESE,121,1.0,1.0,100,0.04,,,0.30,Wunderground v.1.15,2013-03-13 01:45:00,
2013-03-12 21:50:00,50.6,50.6,29.68,SSE,157,1.0,1.0,100,0.04,,,0.30,Wunderground v.1.15,2013-03-13 01:50:00,
2013-03-12 22:00:00,50.4,50.4,29.68,SE,142,2.0,2.0,100,0.00,,,0.30,Wunderground v.1.15,2013-03-13 02:00:00,
2013-03-12 22:05:00,50.3,50.0,29.68,SE,130,1.0,3.0,99,0.00,,,0.30,Wunderground v.1.15,2013-03-13 02:05:00,
2013-03-12 22:10:00,50.2,49.9,29.68,East,98,1.0,1.0,99,0.00,,,0.30,Wunderground v.1.15,2013-03-13 02:10:00,
2013-03-12 22:15:00,50.1,49.8,29.68,ESE,113,1.0,1.0,99,0.00,,,0.30,Wunderground v.1.15,2013-03-13 02:15:00,
2013-03-12 22:20:00,50.1,49.8,29.68,South,186,1.0,1.0,99,0.00,,,0.30,Wunderground v.1.15,2013-03-13 02:20:00,
2013-03-12 22:30:00,50.0,50.0,29.67,South,180,0.0,0.0,100,0.00,,,0.30,Wunderground v.1.15,2013-03-13 02:30:00,
2013-03-12 22:35:00,49.9,49.9,29.67,SE,140,0.0,1.0,100,0.00,,,0.30,Wunderground v.1.15,2013-03-13 02:35:00,
2013-03-12 22:45:00,50.1,50.1,29.67,ESE,123,1.0,1.0,100,0.00,,,0.30,Wunderground v.1.15,2013-03-13 02:45:00,
2013-03-12 22:50:00,50.1,50.1,29.67,ESE,122,0.0,0.0,100,0.00,,,0.30,Wunderground v.1.15,2013-03-13 02:50:00,
2013-03-12 22:55:00,50.1,50.1,29.67,ESE,122,0.0,0.0,100,0.00,,,0.30,Wunderground v.1.15,2013-03-13 02:55:00,
2013-03-12 23:00:00,50.1,50.1,29.67,ESE,122,0.0,0.0,100,0.00,,,0.30,Wunderground v.1.15,2013-03-13 03:00:00,
2013-03-12 23:05:00,50.1,50.1,29.68,ESE,122,0.0,0.0,100,0.00,,,0.30,Wunderground v.1.15,2013-03-13 03:05:00,
2013-03-12 23:10:00,50.2,50.2,29.67,SE,124,0.0,0.0,100,0.00,,,0.30,Wunderground v.1.15,2013-03-13 03:10:00,
2013-03-12 23:20:00,50.1,50.1,29.68,SE,124,0.0,0.0,100,0.00,,,0.31,Wunderground v.1.15,2013-03-13 03:20:00,
2013-03-12 23:30:00,50.4,50.4,29.68,ESE,123,0.0,0.0,100,0.00,,,0.31,Wunderground v.1.15,2013-03-13 03:30:00,
2013-03-12 23:35:00,50.4,50.4,29.67,SE,124,0.0,0.0,100,0.00,,,0.31,Wunderground v.1.15,2013-03-13 03:35:00,
2013-03-12 23:40:00,50.6,50.6,29.67,SE,128,0.0,0.0,100,0.00,,,0.31,Wunderground v.1.15,2013-03-13 03:40:00,
2013-03-12 23:45:00,50.7,50.7,29.67,SE,128,0.0,0.0,100,0.00,,,0.31,Wunderground v.1.15,2013-03-13 03:45:00,
2013-03-12 23:50:00,50.6,50.6,29.67,SE,128,0.0,0.0,100,0.00,,,0.31,Wunderground v.1.15,2013-03-13 03:50:00,
2013-03-12 23:55:00,50.5,50.5,29.67,SE,128,0.0,0.0,100,0.00,,,0.31,Wunderground v.1.15,2013-03-13 03:55:00,